Weather in Krivoy Porog

Russia / Republic of Karelia     65°02′23″N   33°40′20″E
temp.,
°C
wind,
m/s
gust,
m/s
humid.,
%
clouds,
%
prec.,
mm/h
press.,
hPa
HPBL,
m
1 march, mon
mon100:000wsw61393100 0.0 1008496
03:00+2wsw71499100 0.0 1006639
06:00+2w61595100 0.0 1003678
09:00+2w61492100 0.0 1003710
12:00+2w6149295 0.0 1001753
15:00+2w6128794 0.0 1000901
18:000w5129593 0.0 998612
21:000wnw5138497 1.6 998929
2 march, tue
tue200:00−2w6167956 0.0 997891
03:00−2wnw6158177 0.0 998888
06:00−3nw5138499 0.1 9991149
09:00−6nw6148160 0.1 1002765
12:00−4nw7138050 0.0 1004889
15:00−4nw6127861 0.0 10071053
18:00−6wnw513809 0.0 1007557
21:00−7wnw411888 0.0 1008327
3 march, wed
wed300:00−6wnw4129184 0.0 1007377
03:00−7wnw399467 0.0 1008264
06:00−6wnw4109363 0.1 1007267
09:00−8wnw499232 0.1 1007247
12:00−5w369249 0.0 1005281
15:00−4w379364 0.0 1003412
18:00−6w239699 0.1 100043
21:00−7nw129699 0.1 99921
4 march, thu
thu400:00−8nne229794 0.1 99872
03:00−9n269697 0.1 998183
06:00−9nnw3794100 0.0 999245
09:00−10nw3792100 0.1 999262
12:00−8nnw478994 0.1 1000418
15:00−6nnw478894 0.1 1001706
18:00−9nne2596100 0.2 1002154
21:00−11n1296100 0.3 100326
5 march, fri
fri500:00−13nnw239288 0.0 100449
03:00−12nnw259694 0.1 1005161
06:00−12n2796100 0.1 1007239
09:00−14nnw259691 0.1 1009139
12:00−11n258883 0.0 1011474
15:00−9nnw368588 0.0 1012650
18:00−12wnw239353 0.0 101347
21:00−14w339130 0.0 101452